カタログに戻る

STARLINK-34711

運用中通信VLEO
NORAD 64912·PAYLOAD·🇺🇸 United States

打ち上げ Jul 26, 2025 から Cape Canaveral Space Force Station

Loading…

次のパス (今後24時間)

TLE

最新Source: CelesTrak SupGP

元期: Sep 14, 2026, 21:05 UTC

1 64912C 25157J   26257.87895833 -.00001151  00000+0 -33976-4 0  2573
2 64912  53.1574 183.7852 0001328 102.5570 252.6185 15.34409795    14

AllMySatでSTARLINK-34711をリアルタイム追跡

Download on the App Store